����,1�ڽ�(������Ա�),2�ڽ�(�����꼺),3�ڽ�(�ֱ��),4�ڽ�(���ֻ꼺),5�ڽ�(�뷡�ϴºм���),6�ڽ�(���ǵ���),7�ڽ�(���̸�),8�ڽ�(�ݱ���),9�ڽ�(�����������),10�ڽ�(�峲��),11�ڽ�(������),12�ڽ�(��ź����)
2019-01-01,803,695,829,882,4644,449,277,294,84,312,0,311
2019-02-01,769,610,727,666,3125,408,293,258,98,270,0,277
2019-03-01,1949,1674,755,746,3019,1043,1210,1142,1329,474,0,406
2019-04-01,11344,9812,783,226,3224,1109,2605,2232,10819,2090,2801,276
2019-05-01,12623,1811,955,231,3634,1304,3540,2187,22498,2974,28070,204
2019-06-01,9802,4741,433,279,3540,1368,4680,1793,9931,931,4548,225
2019-07-01,4758,3482,339,552,2571,1475,3220,1583,3348,603,1567,488
2019-08-01,5007,3621,84,738,2942,1408,3272,2234,4514,669,1306,478
2019-09-01,6619,3450,151,814,3144,1771,3318,1801,5106,718,1404,319
2019-10-01,8911,4101,418,1410,3556,1922,4349,2855,2054,972,2278,534
2019-11-01,7145,3346,58,1493,3973,784,3998,2082,2557,916,1357,139
2019-12-01,4881,20081,35,949,2794,1264,3519,1583,1768,493,1109,165
2020-01-01,4982,3885,33,848,1828,1570,3383,1406,2125,332,1201,128
2020-02-01,2216,3335,28,740,1283,1464,2847,1667,2876,968,1093,166
2020-03-01,11229,7301,165,729,1344,1597,3558,2041,10939,1121,2936,323
2020-04-01,19235,8475,228,1080,1733,1650,4377,2442,15980,1930,7333,708
2020-05-01,16256,5149,421,1169,1635,1733,4106,2635,13269,984,3101,755
2020-06-01,11926,4369,468,906,1377,1292,3665,1526,12758,1482,3239,469
2020-07-01,11222,4100,305,843,1423,1304,3511,2037,9689,615,1888,561
2020-08-01,9510,3412,277,1088,1352,1203,3629,1815,5517,760,1717,839
2020-09-01,4856,4207,968,802,1112,2089,1871,2351,4423,1241,1127,906
2020-10-01,9780,6438,448,829,1119,2607,1379,3854,9109,1386,981,441
2020-11-01,8791,3892,100,748,1006,1687,350,2960,4518,788,1284,274
2020-12-01,13650,6397,50,1484,1756,2287,1574,2226,5029,769,2129,435
2021-01-01,10586,4187,127,1486,1646,2301,793,2021,3292,819,1910,273
2021-02-01,14225,2308,124,1337,1421,2656,2051,1853,3652,761,2433,374
2021-03-01,15060,4175,156,1497,1588,1572,2856,2417,6778,792,1618,611
2021-04-01,24262,3769,233,1285,1369,1978,2657,1443,11775,549,1972,416
2021-05-01,45915,5607,366,1193,1278,2103,3176,1842,14381,1954,2809,885
2021-06-01,33210,3451,1056,968,29021,1686,2768,1566,1743,476,1537,1699
2021-07-01,9048,2598,417,959,27824,1309,2127,1177,2202,604,1193,1029
2021-08-01,12106,4167,427,9704,27557,1424,2134,1279,6970,730,2132,2346
2021-09-01,19128,3192,901,12300,26772,1699,2821,1718,11607,556,2581,1830
2021-10-01,15870,2311,919,4188,20049,1955,2740,2232,6834,426,2469,1997
2021-11-01,12447,4370,736,8306,13377,1115,2130,1999,4700,424,1658,1104
2021-12-01,8969,2905,560,5654,11127,1028,1818,2089,2122,531,764,752
2022-01-01,11486,4513,646,9809,11114,1343,2018,1879,2128,464,994,1109
2022-02-01,10111,3755,871,8064,9076,1246,1865,1220,2142,434,869,688
2022-03-01,12627,4235,1199,8053,13967,1520,2183,2005,4821,1071,1655,1565
2022-04-01,16212,3931,1439,8385,17022,1697,3078,1826,8627,1097,1813,1033
2022-05-01,18446,4535,1522,7571,21985,1880,3553,1675,10805,859,1898,1417
2022-06-01,13573,3050,1522,6879,18580,1390,3087,1455,8019,882,1215,906
2022-07-01,8435,2741,1525,5238,19923,1039,2530,1174,3708,459,455,1195
2022-08-01,8332,2407,1554,5828,16577,1128,2681,978,5582,784,833,1411
2022-09-01,14030,3539,1612,8221,20259,1308,2897,1684,21744,782,1842,1973
2022-10-01,18248,3479,1565,14458,16162,1672,3140,1499,21330,833,1850,1439
2022-11-01,18249,5440,3372,16081,20189,1725,3748,1737,9402,1094,2076,1592
2022-12-01,9087,2934,1878,8427,15211,1509,2812,1330,3281,721,848,919
2023-01-01,8870,2278,1527,4608,5800,861,1661,803,1059,622,723,411
2023-02-01,12735,3405,425,8773,6869,1327,1892,844,1898,751,1071,577
2023-03-01,14565,3658,689,16501,9376,1351,2524,1261,4546,685,1113,724
2023-04-01,14138,3253,740,19829,13464,1455,2486,886,5587,502,1381,909
2023-05-01,12222,3112,706,18705,21562,1382,2458,907,6622,379,1731,1026
2023-06-01,11509,3285,610,11758,17248,1537,2375,724,5806,463,1818,1062

